Wind_Speed
23 23 24 23 22 22 22 22 21 19 18 17 16 17 16 15 15 14 14 14 14 14 13 12 13 14 15 14 14 14 14 14 15 15 15 16 15 15 15 15 16 16 16 17
26 26 25 24 24 24 24 23 22 21 19 18 18 19 19 18 17 16 15 15 15 15 14 14 15 16 16 16 16 16 16 16 16 16 17 17 16 17 17 17 17 17 17 17
28 27 27 26 24 25 24 24 24 22 20 20 21 21 20 19 18 17 17 18 18 17 17 17 17 17 18 17 17 17 17 18 18 18 18 17 17 18 18 18 18 19 18 18
29 28 29 27 25 26 27 27 26 25 23 22 22 22 22 21 21 20 19 19 19 20 20 21 20 19 18 19 19 18 18 19 20 19 18 18 19 19 19 20 20 20 19 20
30 30 29 27 27 26 27 27 27 27 26 24 24 23 23 23 23 22 21 21 21 22 22 22 22 20 20 20 20 20 20 20 20 20 20 20 20 20 21 22 21 21 21 22
31 31 31 28 27 27 28 28 28 27 26 26 26 26 25 25 25 25 24 23 22 23 23 23 24 23 22 22 22 21 21 21 22 21 21 21 21 22 23 23 23 22 23 24
31 32 32 29 28 27 28 28 27 27 27 27 28 28 28 27 27 26 25 25 24 24 24 25 24 24 24 23 23 23 23 23 23 23 23 23 23 23 24 25 24 24 25 25
31 32 31 29 29 28 28 29 28 28 28 28 28 28 28 28 28 27 26 26 26 26 26 26 26 26 26 26 25 26 25 25 25 25 25 24 24 25 25 26 26 26 26 26
33 32 31 30 29 29 30 31 30 30 29 29 29 29 28 28 27 27 27 27 27 26 27 27 27 28 28 28 28 28 27 26 27 26 26 26 26 26 27 27 27 27 28 28
33 33 33 32 31 31 31 30 29 28 29 31 31 31 29 28 28 28 28 28 28 28 28 29 29 29 29 29 29 29 28 28 28 27 27 27 28 29 29 28 29 29 29 29
33 33 34 34 34 34 33 32 32 32 31 30 31 31 31 31 30 29 29 30 30 30 30 30 30 30 30 30 30 29 29 29 28 29 28 29 29 30 30 30 30 30 29 29
33 33 33 34 34 34 35 34 34 34 33 33 31 30 31 31 31 31 31 31 32 31 31 31 31 31 31 30 30 30 29 29 29 29 29 30 30 31 31 31 31 30 30 29
34 35 34 34 34 34 35 35 35 34 33 33 32 31 31 31 32 32 32 32 33 32 32 32 32 31 31 30 31 31 31 30 30 30 30 31 32 31 31 31 31 30 29 28
35 35 34 34 34 34 33 34 34 35 34 34 33 32 32 32 32 32 32 32 32 33 32 32 32 31 31 31 31 32 32 32 32 31 32 32 32 32 31 31 31 31 30 29
34 34 34 33 33 33 32 32 33 33 33 34 33 33 33 33 33 33 33 33 32 32 32 32 32 32 32 32 32 32 33 33 33 34 33 33 33 33 32 31 30 30 29 28
32 33 32 33 33 33 33 34 34 34 34 34 34 34 34 34 34 34 34 33 33 32 32 32 32 32 32 32 32 33 33 34 34 34 34 33 33 33 32 31 30 29 28 27
30 30 31 32 32 33 33 33 34 34 34 34 34 34 34 34 34 34 34 34 33 33 32 32 32 32 32 32 32 32 33 34 34 33 33 33 33 33 31 31 30 28 28 27
29 29 30 31 32 32 32 33 34 35 35 35 35 34 34 34 34 33 33 33 32 32 33 32 32 32 32 32 32 33 33 33 32 32 32 32 32 32 30 29 28 28 27 28
26 27 28 29 30 29 30 31 32 33 33 34 34 34 34 34 33 32 33 33 33 32 32 32 33 33 33 33 33 32 32 32 31 30 30 30 30 29 29 27 27 27 27 27
25 26 27 27 27 28 29 29 30 31 32 33 33 33 33 34 33 33 33 33 32 32 32 32 32 33 32 32 32 32 31 30 29 28 28 28 28 28 28 27 26 26 26 26
23 24 24 25 26 27 28 29 29 30 31 32 32 32 33 32 33 34 34 33 32 32 32 32 32 32 32 31 31 31 30 29 28 27 27 27 27 28 28 27 26 25 25 25
21 22 23 24 24 24 26 27 28 28 28 29 29 30 30 31 32 32 32 32 32 31 31 31 31 31 31 30 30 30 29 28 27 26 27 27 27 26 26 26 26 26 25 25
21 21 21 21 22 23 23 24 25 26 27 27 27 28 28 29 29 29 29 29 30 30 30 30 30 29 29 28 27 27 27 27 26 26 26 26 26 25 25 25 25 24 24 24
21 21 21 21 21 22 22 22 23 23 24 24 25 26 27 27 27 28 27 27 27 28 29 28 28 27 27 27 26 25 25 25 25 25 25 25 24 24 24 24 24 25 24 24
18 19 19 20 21 20 21 21 21 21 22 22 22 23 24 24 25 25 25 25 26 26 26 26 26 27 27 25 24 23 23 23 23 23 22 22 22 23 23 24 24 24 24 24
15 15 16 16 17 18 18 18 18 18 19 20 20 20 21 21 22 23 23 23 23 23 23 24 25 25 25 24 22 21 21 21 21 21 21 21 21 22 22 22 22 23 23 25
13 14 14 14 14 15 16 16 16 16 16 17 17 18 19 19 19 20 21 21 21 22 22 22 22 22 21 21 21 21 21 21 21 22 22 22 22 22 22 23 23 23 24 25
Wind_Direction
233 234 234 235 237 238 242 250 253 254 254 250 252 258 263 266 268 267 270 275 279 282 284 288 289 287 285 287 287 287 287 289 294 295 296 299 297 297 300 302 304 306 307 308
235 233 233 235 240 239 241 245 250 252 254 253 251 254 260 266 267 270 274 277 280 283 282 285 287 286 284 282 283 284 286 287 291 292 293 294 295 296 298 300 301 303 305 305
237 234 234 236 239 240 241 244 247 250 253 254 254 254 259 264 267 271 276 276 277 282 284 286 287 286 283 282 280 281 283 286 287 290 291 291 292 296 297 298 300 301 301 303
242 237 237 237 237 240 242 244 247 249 250 251 253 255 260 264 267 270 275 277 279 280 282 284 285 283 280 279 279 278 280 283 285 287 289 289 290 292 295 297 299 300 300 301
241 238 237 236 236 238 241 244 247 249 250 252 253 256 260 262 265 270 273 276 279 280 281 282 283 282 281 280 279 278 280 281 282 285 286 286 287 290 293 294 297 299 299 300
241 241 240 237 236 238 240 243 245 247 251 253 253 256 260 261 264 265 269 273 277 278 279 279 279 278 278 280 281 281 281 280 280 280 281 283 286 288 290 292 294 297 299 299
242 243 242 240 239 239 241 243 245 247 250 252 256 257 259 261 261 264 268 272 274 276 278 278 278 279 279 279 281 279 279 278 279 282 283 284 285 287 288 290 291 293 295 296
243 244 241 242 244 242 244 245 247 249 250 254 257 258 259 261 263 263 266 270 272 273 275 276 276 277 277 276 277 277 277 277 278 280 282 283 285 287 290 291 291 292 292 294
246 246 246 245 244 244 244 247 249 251 253 257 257 258 259 260 262 262 264 268 271 272 273 274 275 275 276 277 276 277 275 275 276 278 279 281 284 287 289 291 292 292 293 294
246 247 248 246 244 243 244 247 250 253 255 256 256 257 260 260 261 261 265 268 271 272 272 274 276 276 276 276 276 277 276 274 274 275 278 281 283 286 288 289 290 291 292 292
248 248 248 247 246 246 247 249 253 255 258 258 257 258 259 260 261 262 264 266 269 272 272 274 276 276 274 275 275 277 277 274 274 275 277 281 283 285 287 287 289 290 291 291
247 248 247 246 245 249 251 253 254 256 258 259 258 258 259 260 262 264 264 266 268 270 272 273 275 276 275 273 274 276 276 274 274 276 278 281 283 285 286 287 287 288 289 289
247 248 249 248 248 250 252 253 256 257 258 258 259 261 261 262 263 265 266 267 268 269 271 273 273 275 275 274 275 275 274 274 275 277 279 282 284 285 286 287 289 288 287 288
248 250 250 250 250 252 253 254 256 256 256 258 260 261 263 264 265 267 267 269 269 269 270 272 272 273 274 274 275 276 274 273 274 276 279 281 283 285 285 285 287 288 286 286
248 249 248 248 250 253 254 255 256 257 259 259 262 262 263 263 264 266 267 268 270 271 272 272 272 273 273 273 274 276 275 273 274 276 278 280 282 283 284 284 285 286 285 285
246 247 247 247 249 252 254 256 257 257 258 259 261 262 262 263 264 265 266 267 269 271 272 272 272 272 272 272 274 275 276 274 273 275 277 279 280 281 282 283 284 284 283 283
245 246 249 250 252 253 255 257 258 258 258 258 259 261 263 263 264 265 266 268 269 269 270 271 272 272 272 272 274 275 277 276 275 276 277 278 279 280 281 281 281 281 281 281
248 249 251 252 254 255 256 257 258 258 258 259 259 260 261 263 265 266 266 267 267 268 269 270 271 272 272 273 274 275 278 279 278 278 277 277 278 279 280 280 278 278 279 279
249 251 252 254 254 254 256 257 258 258 258 258 259 260 261 262 263 264 265 266 267 268 268 269 270 270 271 272 273 274 276 277 278 279 280 278 278 280 280 279 280 279 278 278
249 250 251 252 254 254 255 256 257 258 260 261 261 261 262 263 264 264 265 265 266 267 267 268 269 270 270 272 273 274 276 276 278 279 279 278 279 280 280 278 278 280 278 276
249 247 248 251 254 256 257 258 261 262 263 262 261 262 263 265 267 266 265 265 265 266 266 268 269 270 271 273 274 274 275 276 276 276 277 278 279 280 279 278 278 279 279 279
247 247 250 254 256 258 259 260 262 264 263 262 263 263 264 265 266 266 266 265 264 265 266 268 271 272 273 273 273 273 272 272 273 275 276 277 278 278 278 279 280 282 282 281
254 251 250 253 257 260 261 262 263 264 265 266 263 263 264 265 266 266 266 265 265 265 266 268 271 272 272 271 272 272 272 272 273 274 275 276 276 276 277 279 281 283 284 284
258 256 256 259 261 264 266 267 268 267 266 267 265 264 264 266 266 266 267 266 266 265 266 267 269 270 270 269 270 271 271 271 272 272 273 274 274 275 277 278 280 282 283 283
256 257 260 261 262 264 266 268 269 269 269 269 268 267 266 265 265 265 265 265 266 266 267 267 268 268 268 268 267 269 269 270 271 271 271 272 274 275 277 280 280 280 280 281
261 260 261 264 265 265 266 267 271 272 272 273 272 269 267 267 266 265 265 266 267 267 267 267 268 267 267 267 266 267 268 271 271 271 272 274 276 277 278 280 281 281 279 280
262 260 263 265 265 267 268 268 270 272 274 275 273 271 270 269 269 268 267 267 267 267 268 267 267 266 267 268 267 267 269 271 272 273 274 275 277 278 280 281 281 281 280 282
Height
5875 5877 5879 5881 5883 5884 5885 5885 5887 5888 5889 5890 5891 5891 5891 5892 5893 5894 5894 5894 5894 5894 5894 5894 5893 5893 5892 5891 5891 5890 5889 5888 5887 5885 5884 5883 5881 5880 5878 5876 5874 5872 5869 5867
5869 5871 5873 5875 5877 5878 5880 5881 5882 5883 5884 5885 5885 5886 5887 5887 5888 5890 5890 5890 5890 5890 5890 5890 5889 5888 5888 5887 5887 5886 5885 5884 5882 5881 5880 5878 5877 5875 5874 5872 5870 5867 5865 5862
5863 5865 5867 5869 5872 5873 5874 5875 5877 5878 5880 5880 5880 5881 5882 5884 5884 5884 5885 5885 5885 5885 5885 5885 5884 5884 5883 5882 5882 5881 5880 5879 5878 5876 5875 5873 5872 5870 5869 5867 5864 5862 5860 5857
5855 5859 5860 5866 5866 5867 5868 5870 5871 5872 5873 5874 5875 5876 5877 5879 5879 5879 5879 5880 5879 5879 5879 5879 5879 5878 5878 5877 5876 5875 5875 5874 5872 5871 5870 5868 5867 5865 5863 5861 5859 5857 5854 5852
5848 5850 5853 5857 5859 5860 5861 5863 5864 5866 5867 5868 5869 5871 5872 5873 5873 5874 5874 5874 5874 5874 5873 5873 5872 5872 5871 5871 5870 5869 5868 5867 5866 5865 5864 5862 5861 5859 5857 5855 5853 5851 5849 5846
5840 5842 5845 5851 5852 5853 5856 5856 5858 5859 5861 5862 5863 5865 5866 5867 5867 5868 5869 5868 5868 5867 5867 5867 5866 5865 5865 5864 5863 5863 5862 5861 5860 5858 5857 5856 5854 5853 5851 5849 5847 5844 5842 5840
5832 5834 5838 5842 5844 5847 5849 5851 5852 5853 5854 5856 5857 5859 5860 5860 5861 5861 5862 5862 5862 5861 5860 5859 5859 5859 5858 5858 5856 5855 5855 5854 5853 5852 5850 5849 5848 5846 5844 5842 5840 5838 5836 5833
5824 5827 5832 5835 5837 5839 5841 5843 5844 5846 5847 5848 5849 5850 5852 5853 5853 5854 5854 5854 5854 5854 5853 5853 5852 5852 5851 5851 5850 5849 5848 5847 5846 5845 5843 5842 5840 5839 5837 5835 5833 5830 5828 5826
5818 5821 5823 5826 5829 5831 5833 5835 5836 5838 5840 5840 5841 5842 5843 5845 5845 5846 5846 5847 5847 5847 5846 5845 5845 5844 5844 5842 5841 5840 5839 5839 5838 5837 5836 5834 5833 5831 5829 5827 5825 5823 5821 5818
5809 5812 5815 5818 5820 5822 5825 5827 5828 5830 5832 5833 5834 5835 5836 5837 5837 5837 5838 5839 5839 5839 5838 5837 5837 5836 5835 5834 5833 5831 5831 5830 5829 5828 5828 5827 5825 5824 5822 5819 5817 5815 5812 5810
5800 5803 5806 5808 5811 5814 5816 5818 5820 5822 5823 5823 5825 5826 5827 5828 5829 5829 5829 5830 5829 5829 5829 5829 5828 5827 5826 5825 5824 5823 5822 5821 5820 5819 5819 5818 5817 5815 5813 5811 5808 5806 5804 5801
5792 5795 5797 5800 5802 5804 5806 5809 5810 5813 5814 5815 5816 5816 5817 5818 5819 5819 5819 5819 5820 5820 5820 5819 5818 5817 5816 5815 5814 5814 5813 5812 5812 5811 5810 5809 5808 5806 5804 5802 5799 5797 5795 5792
5783 5785 5788 5790 5792 5795 5797 5799 5801 5802 5803 5805 5806 5808 5808 5808 5809 5809 5809 5809 5810 5810 5810 5809 5809 5808 5806 5805 5805 5804 5804 5803 5803 5802 5801 5800 5798 5797 5795 5793 5790 5788 5786 5783
5773 5776 5778 5781 5783 5785 5787 5789 5791 5791 5793 5795 5796 5797 5798 5799 5799 5799 5799 5800 5800 5800 5800 5800 5799 5799 5798 5797 5796 5795 5795 5794 5793 5793 5792 5790 5789 5787 5785 5783 5782 5779 5777 5775
5764 5766 5769 5771 5774 5776 5778 5780 5781 5783 5784 5786 5787 5788 5789 5789 5789 5789 5790 5790 5790 5790 5790 5789 5789 5789 5788 5787 5787 5786 5785 5785 5784 5783 5782 5781 5779 5777 5776 5774 5772 5770 5768 5766
5754 5756 5758 5761 5764 5766 5768 5770 5771 5773 5774 5775 5776 5777 5778 5779 5779 5780 5780 5780 5780 5780 5780 5779 5779 5779 5778 5778 5777 5776 5775 5774 5774 5773 5772 5770 5769 5768 5766 5765 5763 5761 5760 5758
5745 5748 5750 5752 5754 5757 5759 5760 5761 5762 5764 5765 5766 5767 5768 5768 5769 5769 5770 5770 5770 5770 5770 5770 5769 5769 5768 5768 5767 5767 5766 5764 5763 5763 5761 5760 5759 5758 5756 5755 5754 5753 5751 5750
5736 5738 5740 5743 5745 5747 5749 5750 5751 5752 5753 5754 5755 5756 5757 5758 5758 5759 5759 5759 5760 5760 5760 5759 5759 5759 5759 5758 5758 5757 5756 5755 5754 5753 5751 5750 5749 5747 5746 5745 5745 5744 5742 5741
5727 5729 5731 5733 5735 5737 5739 5740 5741 5742 5742 5743 5744 5745 5746 5747 5747 5748 5748 5749 5749 5750 5750 5749 5749 5749 5748 5748 5748 5747 5746 5745 5744 5743 5742 5741 5740 5738 5737 5736 5736 5735 5734 5732
5719 5721 5723 5725 5726 5727 5728 5730 5731 5732 5732 5733 5733 5734 5735 5736 5737 5738 5738 5738 5739 5739 5739 5739 5738 5738 5738 5738 5737 5737 5736 5736 5735 5734 5733 5732 5731 5730 5729 5728 5727 5725 5724 5724
5712 5713 5715 5716 5717 5718 5719 5720 5721 5722 5722 5722 5723 5724 5725 5725 5726 5727 5727 5727 5728 5728 5728 5728 5728 5728 5728 5728 5727 5727 5727 5726 5726 5725 5724 5723 5722 5721 5721 5719 5718 5717 5716 5715
5705 5706 5708 5709 5709 5710 5711 5711 5712 5712 5712 5712 5713 5714 5714 5715 5716 5716 5716 5716 5717 5718 5718 5718 5719 5718 5718 5718 5718 5717 5717 5716 5716 5716 5715 5714 5714 5713 5712 5711 5710 5709 5708 5707
5698 5699 5700 5701 5702 5702 5703 5703 5704 5704 5704 5704 5704 5704 5704 5705 5705 5705 5706 5707 5707 5707 5708 5709 5709 5709 5708 5708 5708 5708 5707 5707 5707 5707 5706 5706 5705 5704 5703 5702 5701 5700 5699 5698
5692 5692 5693 5694 5695 5695 5696 5696 5696 5696 5696 5696 5695 5695 5695 5695 5696 5696 5697 5697 5697 5698 5698 5699 5700 5699 5699 5699 5700 5699 5699 5699 5698 5698 5698 5697 5697 5696 5695 5694 5694 5693 5692 5690
5685 5686 5687 5688 5688 5688 5689 5689 5689 5688 5688 5687 5687 5686 5686 5686 5687 5687 5688 5688 5689 5689 5690 5690 5691 5691 5691 5691 5692 5692 5691 5691 5691 5690 5690 5690 5689 5689 5688 5687 5686 5685 5684 5683
5680 5681 5681 5682 5682 5682 5682 5682 5682 5682 5681 5680 5679 5679 5678 5678 5678 5679 5679 5680 5681 5681 5682 5683 5683 5683 5683 5683 5684 5684 5684 5684 5684 5684 5683 5683 5682 5682 5681 5680 5679 5678 5677 5676
5677 5677 5676 5676 5676 5676 5676 5676 5676 5676 5675 5674 5673 5672 5672 5672 5672 5672 5672 5673 5674 5674 5675 5675 5675 5676 5676 5676 5677 5677 5677 5677 5677 5677 5677 5676 5676 5675 5675 5674 5673 5671 5670 5669